Theta_e
309 308 308 308 309 308 308 306 305 306 309 310 309 308 307 304 300 298 296 297 295 294 292 290 288 287 286 286 286 286 286 287 288 283 283 283 282 281 281 281 281 280 280
308 307 307 306 306 305 305 303 303 304 306 307 306 304 302 298 297 295 294 294 293 292 288 287 287 286 286 285 285 285 285 285 285 284 282 281 281 281 281 280 280 280 280
307 306 305 305 304 303 301 300 302 302 302 302 300 300 298 296 291 292 292 291 289 289 287 287 286 285 285 285 285 285 284 284 284 284 282 281 281 280 280 280 280 280 280
305 304 304 303 303 300 299 299 302 302 300 299 298 297 294 290 289 288 288 288 287 286 286 286 286 286 286 285 285 284 284 283 283 282 282 281 281 280 280 280 281 281 280
304 302 302 302 301 299 299 298 300 300 298 297 294 292 291 290 287 287 288 286 286 285 285 285 285 285 286 286 286 285 284 283 282 281 281 281 280 280 280 281 280 280 280
303 302 301 301 299 298 297 297 298 297 295 293 292 291 288 286 286 289 286 285 285 285 285 285 285 286 285 285 287 285 284 285 283 282 281 281 282 281 281 280 280 280 280
300 300 300 299 298 297 296 295 294 293 292 291 289 288 287 286 287 285 285 285 284 284 285 284 285 286 285 288 286 283 284 283 283 283 282 282 282 281 281 280 280 279 279
298 297 297 297 296 295 294 293 292 291 290 289 287 287 286 285 284 285 284 284 284 284 285 284 286 287 287 287 286 285 285 283 282 282 282 282 282 282 281 280 279 278 278
295 295 295 295 294 293 292 291 290 289 288 287 286 285 284 284 284 285 284 284 285 284 284 283 285 288 290 289 287 284 282 281 282 282 281 282 282 282 281 279 278 279 279
293 293 293 292 292 292 291 290 289 288 287 286 285 284 283 283 283 285 284 286 283 283 283 283 285 290 290 288 287 285 280 281 281 281 282 282 280 280 280 280 280 280 279
291 291 290 290 290 290 289 288 287 286 285 284 284 283 283 283 283 285 285 283 283 283 283 283 286 290 289 289 288 285 284 281 281 281 282 281 280 279 279 279 278 278 278
289 289 288 288 288 288 287 286 286 285 284 283 282 282 282 282 282 284 285 284 285 283 283 283 286 289 289 290 287 287 286 282 281 281 281 280 280 279 279 278 277 277 276
288 287 286 286 286 286 286 285 284 283 283 282 282 282 282 282 282 283 285 286 284 283 283 284 285 287 288 289 286 288 285 283 282 283 282 281 281 280 278 277 275 275 274
286 286 285 285 285 284 284 284 284 284 284 283 283 283 282 281 281 282 284 285 285 284 284 285 285 286 287 287 286 286 284 284 283 283 282 281 279 278 276 275 273 273 272
286 285 285 285 285 284 284 284 284 284 284 284 284 284 283 282 282 283 282 284 285 285 286 285 285 285 285 284 284 283 283 282 282 281 280 279 277 275 274 273 272 271 270
286 286 285 285 285 284 284 284 284 284 284 284 284 284 284 285 285 286 285 283 283 285 285 285 285 285 285 284 283 282 281 280 280 279 278 276 275 274 272 272 271 270 269
287 286 286 286 285 285 284 284 284 284 284 284 284 284 284 284 284 285 284 284 284 284 284 284 284 284 283 282 282 280 278 278 277 276 275 273 272 271 270 269 268 268 267
287 287 287 286 286 286 286 286 286 286 285 284 284 284 284 284 284 284 285 285 285 284 285 284 282 281 280 279 279 278 277 275 274 273 272 271 270 269 267 267 266 266 265
285 285 285 285 285 284 284 284 284 284 284 283 282 281 281 280 280 282 282 283 283 283 282 280 279 279 277 276 275 274 273 272 271 270 270 268 267 266 265 265 264 264 263
280 280 280 280 279 279 279 280 280 280 280 280 279 280 279 279 278 278 279 279 279 277 277 276 276 275 274 273 272 271 271 270 269 268 266 265 265 264 263 263 262 262 262
277 277 277 277 277 276 276 276 276 276 277 277 276 276 275 277 277 275 275 275 274 273 273 272 272 272 271 271 270 269 269 267 266 265 264 264 263 262 262 262 261 261 261
276 275 275 275 274 274 273 273 273 273 273 273 272 273 272 274 273 273 272 272 272 272 271 270 269 269 269 269 268 267 266 265 264 264 263 263 262 262 261 261 260 260 260
274 273 273 272 272 271 271 271 271 270 270 270 270 270 270 270 270 270 270 269 269 269 269 268 268 267 267 266 265 265 265 264 264 263 263 262 262 261 260 260 260 259 259
271 270 270 270 270 269 269 268 268 268 268 268 268 268 268 268 268 268 268 268 267 267 266 266 265 265 265 264 264 264 263 263 263 262 262 261 261 261 260 259 259 259 258
268 267 267 267 266 266 266 266 266 266 266 265 265 265 265 265 265 265 265 265 265 264 264 264 264 264 264 263 263 263 262 262 261 261 261 260 260 260 259 259 258 258 258
266 266 265 265 265 264 264 264 264 264 264 264 264 264 264 264 264 264 263 263 263 263 263 263 263 263 263 262 262 262 262 262 261 261 260 260 260 260 259 259 258 258 257
Wind_Speed
18 19 20 22 23 23 23 22 24 27 31 32 33 34 38 39 38 35 37 37 35 35 31 30 27 24 22 20 18 16 13 11 11 6 13 13 12 10 10 10 12 13 12
16 18 21 21 21 22 22 21 25 26 27 29 31 33 36 37 35 37 38 37 39 37 33 30 30 28 25 23 21 18 15 12 10 11 12 11 10 9 11 12 13 14 14
15 17 20 21 22 22 23 25 26 25 25 26 28 30 33 35 36 36 35 34 34 36 36 33 31 28 26 24 20 18 16 12 11 10 8 11 10 11 10 10 11 13 14
16 18 20 21 21 22 23 26 27 27 26 26 27 29 31 33 34 35 33 28 30 30 30 31 31 30 27 23 20 17 15 14 10 11 11 10 10 10 11 10 10 9 15
17 19 20 20 21 22 24 25 26 26 27 27 27 28 30 33 36 36 31 32 29 28 26 26 26 25 21 20 19 17 16 14 13 13 12 9 10 10 11 7 12 14 18
18 20 18 20 23 25 24 25 25 26 26 26 26 28 31 34 36 35 35 33 32 31 29 27 26 22 19 16 13 15 16 16 17 16 14 13 14 12 12 12 11 9 4
22 22 22 23 25 25 25 25 24 25 24 26 26 28 31 33 33 32 34 33 33 31 32 33 29 24 20 18 17 16 17 17 18 20 20 19 16 17 14 13 13 14 16
21 22 23 23 25 24 25 25 24 24 25 25 25 26 27 29 30 26 32 36 32 28 30 32 31 27 23 22 22 20 22 24 22 21 22 21 19 18 19 17 18 21 21
15 18 20 22 22 21 23 23 23 22 22 22 22 23 25 26 25 29 30 33 30 31 33 33 30 24 18 22 23 25 25 28 24 20 20 19 17 17 16 16 17 17 14
8 10 13 15 19 21 21 20 20 20 20 19 19 19 21 23 24 29 29 30 30 32 33 32 29 25 22 23 26 28 28 29 24 22 25 27 24 24 20 22 23 18 18
5 7 8 9 13 15 15 15 16 16 16 16 17 17 19 21 26 29 30 35 37 38 37 37 33 29 24 21 24 29 33 24 26 24 26 23 21 22 21 20 22 22 20
7 7 7 8 9 11 12 13 13 14 15 15 16 16 19 20 24 29 31 31 32 34 34 36 37 30 23 25 25 28 32 24 22 23 24 22 20 19 18 18 19 20 22
10 10 9 7 7 9 11 12 11 11 11 11 12 12 12 18 23 26 29 27 25 25 30 29 30 31 27 26 26 26 28 28 28 22 21 20 20 17 16 16 15 16 19
13 12 12 11 10 9 9 11 11 11 10 10 9 9 10 14 18 24 23 24 24 19 18 16 18 21 23 26 30 28 28 29 26 22 19 15 14 13 13 13 13 12 13
15 14 12 11 9 10 7 8 7 7 9 11 11 12 13 14 20 23 25 24 24 23 19 21 20 22 24 24 25 27 26 24 23 21 18 15 13 11 10 10 10 10 12
15 13 12 12 10 9 8 7 4 3 6 7 6 9 10 9 9 15 21 21 22 21 21 21 21 22 22 23 23 21 21 22 21 18 15 14 13 11 9 9 9 10 10
11 11 10 10 9 8 8 6 5 4 4 6 6 6 6 5 11 12 13 18 20 19 21 21 23 20 17 16 16 16 16 17 18 17 15 13 11 10 10 9 8 9 9
9 9 9 8 7 6 5 3 3 5 5 3 6 6 6 6 9 9 10 12 17 21 21 18 15 16 14 13 14 14 15 15 15 15 14 13 12 12 11 9 8 7 8
11 8 7 7 7 5 4 3 2 1 1 2 4 3 3 3 4 7 9 13 12 12 15 11 12 13 14 16 15 15 15 15 15 15 14 14 13 12 10 9 8 9 10
11 12 10 8 7 5 5 4 2 1 0 2 1 1 1 3 1 1 5 7 8 7 10 11 12 12 12 14 15 15 15 15 15 14 13 13 12 12 11 11 10 9 10
13 13 12 11 10 8 8 7 4 3 3 4 2 2 3 2 2 2 3 5 5 6 7 8 11 12 13 14 14 14 14 13 13 13 12 13 12 13 12 11 10 11 11
14 14 13 13 10 10 9 7 6 7 6 4 4 2 1 3 3 4 5 7 9 10 11 11 11 12 13 13 13 13 14 14 14 13 13 13 13 12 12 11 10 10 11
14 13 13 13 11 9 8 8 7 6 6 5 4 3 3 4 6 6 8 10 11 11 11 11 12 13 13 14 14 14 15 15 14 14 14 14 13 13 12 11 11 12 13
12 13 12 12 10 7 6 6 6 7 6 4 4 4 5 6 7 9 11 12 13 13 13 13 14 15 16 16 16 15 16 16 16 15 14 15 15 14 14 13 14 15 14
13 13 12 10 7 6 5 6 6 6 6 6 6 7 8 9 10 11 13 14 14 15 16 16 16 16 17 17 18 17 16 16 17 17 17 17 17 16 15 15 15 14 14
11 10 8 6 5 5 6 7 7 7 8 9 10 11 12 13 14 15 15 16 17 17 17 18 18 18 19 19 19 19 19 19 19 19 19 18 18 18 18 18 18 18 18
Wind_Direction
216 221 224 224 222 220 222 217 222 224 226 229 227 222 222 216 213 211 208 203 199 200 202 195 188 181 175 174 170 168 169 163 134 150 175 202 211 231 257 272 279 288 295
217 219 221 223 222 222 221 220 224 226 230 232 230 228 225 220 212 207 206 204 202 198 194 190 181 177 175 172 170 169 173 173 161 158 187 209 222 230 238 252 274 291 300
219 221 223 223 221 220 220 223 228 230 233 232 231 230 227 220 211 209 210 206 203 201 193 189 183 176 171 172 174 174 177 177 179 173 184 209 223 233 248 262 278 284 294
219 221 222 221 219 219 225 230 232 234 235 233 232 229 224 217 213 211 209 209 205 197 192 190 186 180 177 175 177 182 185 185 180 197 206 224 235 234 253 270 280 276 290
222 223 227 223 220 219 224 229 232 234 236 235 230 224 220 217 213 208 209 205 198 192 190 188 186 185 182 182 182 191 198 194 197 211 219 226 230 226 240 241 275 297 299
222 227 228 222 219 221 225 228 228 229 230 231 229 226 220 217 211 215 208 202 200 194 186 188 185 185 185 188 204 219 220 214 211 218 223 228 244 244 254 264 267 288 303
225 228 227 222 224 225 225 227 226 228 226 227 228 225 224 220 220 207 210 207 204 198 192 188 181 184 191 205 212 218 232 232 233 242 238 242 246 254 258 254 259 259 261
224 224 222 218 220 222 221 223 224 225 226 224 224 225 226 222 210 192 204 209 204 206 204 197 189 186 198 208 218 224 236 242 237 240 253 259 258 264 263 264 270 274 274
224 225 224 221 218 216 218 222 222 221 219 222 223 220 218 221 202 191 194 207 210 213 210 203 197 199 213 224 223 230 241 246 248 254 263 263 261 256 258 269 258 258 263
227 229 227 223 220 213 217 212 218 220 221 217 216 221 220 219 197 190 195 211 199 206 209 205 204 215 223 224 229 232 241 247 250 250 260 265 263 259 256 253 261 257 262
192 186 199 211 216 214 210 202 207 204 207 204 210 213 212 208 201 201 211 203 206 208 208 206 210 220 228 242 247 241 243 251 252 256 267 270 271 269 266 261 255 251 251
150 149 153 172 184 188 190 187 190 193 189 193 198 199 205 207 203 210 207 212 220 216 210 212 220 223 238 254 254 263 260 242 243 246 251 253 256 259 261 264 264 261 262
126 116 118 132 147 166 165 166 165 176 167 167 179 184 196 214 218 213 211 214 220 219 218 221 229 228 243 256 253 277 270 239 237 233 232 238 237 237 246 254 262 265 268
118 117 121 126 128 139 146 152 155 163 169 175 182 199 198 197 207 204 207 213 220 222 226 219 229 243 258 268 268 270 249 241 235 232 237 237 234 246 260 265 260 261 266
123 121 114 119 122 128 129 150 155 180 192 190 202 207 196 200 211 215 206 204 213 222 229 234 242 246 252 252 248 248 246 234 231 234 228 236 247 245 244 243 253 256 260
124 126 130 131 129 131 130 121 140 189 209 210 218 224 230 234 223 226 222 225 221 218 220 233 243 245 248 245 233 228 222 223 228 226 218 223 226 231 233 242 251 262 278
123 123 125 121 124 129 134 139 138 151 183 196 204 216 223 250 226 228 225 222 220 219 226 231 238 238 235 236 229 211 210 215 218 223 228 226 225 234 245 253 257 266 276
129 127 124 124 119 123 132 152 156 157 155 146 182 201 220 244 233 216 210 214 220 223 232 232 221 218 232 232 224 214 209 209 216 218 217 223 233 237 240 245 249 261 268
131 124 115 125 126 134 152 179 200 222 235 214 241 256 275 310 279 239 218 224 223 226 226 226 220 225 231 230 224 218 215 216 212 214 221 227 232 236 237 239 243 253 259
103 110 114 107 105 98 94 77 58 17 270 241 244 335 298 204 350 270 229 233 229 235 246 243 243 239 231 224 221 219 214 218 224 227 227 229 227 226 225 231 235 235 242
101 95 93 93 83 75 74 69 62 71 55 43 53 332 286 164 147 256 259 250 249 256 255 247 247 239 233 229 229 231 231 232 231 229 226 224 222 221 228 223 225 239 248
88 84 85 84 82 80 79 78 70 63 57 52 5 33 22 263 263 266 271 270 269 266 260 254 253 252 251 249 247 244 238 233 233 228 223 222 224 225 224 226 233 235 242
87 89 86 84 80 80 74 70 71 68 60 50 35 359 330 295 292 292 290 287 285 281 276 272 268 269 266 259 253 247 243 241 238 236 229 229 228 226 228 227 232 237 237
85 84 81 75 71 65 63 58 51 46 43 20 354 330 306 294 287 283 281 279 279 278 275 271 266 264 264 261 256 253 250 247 246 242 237 235 234 233 225 228 231 234 239
74 71 70 69 63 55 42 35 27 18 0 343 319 311 303 298 294 290 286 284 281 279 277 274 271 268 265 263 262 261 258 253 251 252 248 243 241 240 240 239 237 239 243
61 59 58 54 39 22 13 5 352 338 327 317 310 302 298 295 293 290 288 286 285 283 279 276 276 274 272 269 267 264 261 259 255 254 251 247 245 245 244 246 247 245 244